DELTA 1 DEB, 42081

Orbit data source: Space-Track

DELTA 1 DEB, 42081 is space debris in SSO originally from a launch on Sun, 15 Dec 1968 UTC launched from the Air Force Western Test Range (AFWTR). Debris objects in space refer to the collection of defunct objects orbiting the Earth. Examples of debris include non-operational satellites, rocket bodies, and fragments generated from explosions, collisions, or faulty payload assembly.

Loading next visibility...
Identifier
42081, 1968-114H
Orbit
SSO
Country
Flag of USUS
Related business
Manufacturer
Aerojet
Mission
Spacecraft
Bus & Motor
Unknown
Mass
Unknown
Launch date (UTC)
1968-12-15 (57 years ago)
Launch vehicle
Unknown
Launch site
Air Force Western Test Range (AFWTR)
Object type
Payload
Rocket body
Debris
Shape & HBR
Unknown shape, 0.1 m
Radar Cross Section
Small (<0.1 m²)

Expand to show TLE details & history
Last TLE update: 1 week ago

TLE from 1 week ago
0 DELTA 1 DEB
1 42081U 68114H   25293.15372519  .00000089  00000-0  10567-2 0  9997
2 42081 101.6671 247.9451 0117897  72.6992 288.6928 12.31764559473212
Epoch: 2025-10-20T03:41Z
TLE epoch observation values (Epoch: 2025-10-20T03:41:21.856Z)
Latitude
0.00001°
Longitude
163.74391°
Altitude
1,515.323 km
Speed
7.12 km/s
True Right ascension
16h 31m 46s
True Declination
0° 00' 00"
Sunlit
Object was in daylight at epoch
Visualization orbit readout
Latitude
Unknown
Longitude
Unknown
Altitude
Unknown
Speed
Unknown
Apparent Right ascension
Unknown
Apparent Declination
Unknown
Sunlit
N/A
Visualization observer readout
Local Sidereal Time
10:05:42
Azimuth
Unknown
Elevation
Unknown
Doppler factor
Unknown
Orbital elements
Apogee altitude
1,632.618 km
Perigee altitude
1,445.93 km
Semi-major axis
7,917.411 km
Eccentricity
0.01179
Inclination
101.6671°
RAAN
247.9451°
Arg. of periapsis
72.6992°
True anomaly
287.4071°
Mean anomaly
288.6928°
Eccentric anomaly
288.05055°
Mean motion
3.08083 °/min
Orbital period
116.85 mins
BSTAR
0.0010567
Loading maneuver chart data...
Computing Atmospheric mass density...
Loading historical data...
Loading historical data...
Loading historical data...
Loading historical data...
Loading historical data...
Loading historical data...
Loading historical data...

Documentation

Showing up to 5 results
|